Wind_Speed
14 13 14 14 16 16 15 15 16 15 12 13 12 9 6 5 6 4 6 8 9 7 6 5 4 4 3 1 3 3 2 3 4 6 3 1 3 2 2 6 2 2 5 12 32
14 15 15 15 15 16 16 16 16 15 13 12 10 8 5 4 8 8 12 10 11 7 5 6 4 5 2 3 2 4 4 8 3 2 2 1 2 6 4 2 2 4 7 30 29
15 16 15 16 15 16 16 17 17 16 14 11 9 6 5 5 2 5 13 13 10 8 7 6 3 4 4 3 4 5 4 4 3 2 3 3 3 2 8 3 6 8 17 16 19
17 17 16 17 17 17 18 17 16 16 15 10 8 5 4 2 3 2 11 10 8 9 7 5 3 6 5 6 5 3 5 3 2 1 1 3 1 3 5 4 4 14 25 17 12
18 19 18 17 16 17 18 18 17 16 15 10 6 4 1 1 7 5 10 9 7 9 8 4 4 5 5 6 4 4 2 3 5 3 1 3 2 3 4 3 5 11 14 17 12
21 19 19 18 18 18 19 19 17 16 16 10 6 4 2 5 4 7 12 12 10 9 5 5 5 5 4 3 5 5 5 4 4 4 3 3 2 3 6 5 7 11 11 11 12
21 21 22 21 19 19 18 18 16 16 16 10 5 4 4 12 4 7 11 11 10 7 2 5 4 3 2 3 3 5 5 1 4 4 4 4 6 9 5 6 9 12 10 8 8
21 22 21 22 21 20 19 20 19 19 15 9 5 3 6 5 8 12 11 8 9 7 4 5 4 3 3 3 5 4 4 3 2 8 2 5 7 4 7 9 10 9 7 8 9
22 22 21 20 21 20 19 20 21 20 9 5 4 3 8 3 6 17 13 4 6 6 3 3 1 2 3 6 2 2 4 5 5 8 4 4 6 2 3 9 10 9 9 9 8
24 25 26 22 20 21 18 18 19 6 3 5 4 1 6 5 6 14 13 7 2 4 4 2 3 3 1 4 7 7 5 5 5 7 4 5 10 7 2 8 14 10 8 8 12
23 22 24 24 19 18 16 8 3 2 6 10 8 5 1 4 8 10 13 7 3 4 6 3 3 14 16 6 2 6 5 6 3 5 5 8 7 9 6 5 7 9 9 9 12
24 24 21 22 22 19 14 4 5 2 6 12 15 13 8 6 4 4 17 7 6 5 5 3 13 8 3 5 2 4 5 4 2 3 6 2 12 10 8 7 11 15 10 11 7
28 26 26 22 20 19 15 14 8 3 4 7 8 9 7 8 7 13 15 6 5 6 7 7 5 10 8 6 8 3 5 4 3 2 2 4 8 6 6 7 7 10 13 12 16
28 30 28 23 12 19 14 20 23 4 3 6 6 9 9 8 7 8 18 7 4 11 6 6 4 7 8 6 7 6 6 5 7 4 3 2 5 5 3 5 9 11 11 11 10
29 29 24 23 7 4 5 14 13 7 4 6 6 3 8 13 9 10 23 4 10 8 7 8 5 7 5 5 8 4 6 6 4 4 2 2 1 7 1 6 9 10 10 10 13
25 21 24 19 23 20 18 10 11 6 9 5 6 6 7 4 2 4 10 4 5 6 3 6 2 5 6 4 3 10 7 8 5 3 2 5 6 5 5 6 3 3 7 9 10
26 24 22 18 8 15 20 4 6 9 3 6 6 6 7 7 5 6 12 12 8 6 6 1 2 0 4 7 4 4 6 3 3 2 5 2 4 9 6 6 5 10 9 9 9
27 24 20 21 25 18 14 8 11 8 8 2 4 6 8 7 4 4 9 15 6 3 5 8 3 8 4 6 8 6 7 6 8 5 3 5 6 6 5 2 5 6 7 7 9
22 19 19 22 23 20 7 12 8 5 7 8 3 4 5 5 7 3 12 17 13 8 7 6 5 1 1 4 8 6 5 3 6 2 3 4 6 7 4 3 4 8 9 9 11
13 7 16 15 23 11 7 14 5 6 5 3 10 5 9 10 8 12 9 12 13 14 3 5 3 1 2 3 3 4 7 3 2 3 4 4 5 5 6 7 6 8 10 8 7
4 3 5 16 21 4 6 6 3 5 2 5 6 5 3 5 8 6 6 10 21 15 11 4 4 1 4 6 7 3 2 4 4 3 5 3 6 5 8 9 13 12 11 11 9
2 4 2 20 5 2 4 4 3 7 8 4 3 4 7 10 4 7 8 7 13 14 14 5 5 4 4 4 1 2 6 5 5 5 0 2 5 2 2 8 10 10 9 8 8
2 3 6 11 5 6 1 8 5 4 6 7 8 6 5 8 3 11 13 3 5 16 18 10 3 4 4 5 4 5 5 4 4 3 6 5 5 2 3 7 7 10 9 9 8
1 3 2 2 1 4 4 4 5 7 3 6 5 4 4 4 5 1 10 4 6 9 16 19 4 6 7 7 5 6 5 6 6 3 5 5 3 4 4 8 7 8 8 8 8
2 3 1 1 6 6 9 4 9 5 7 6 4 7 7 5 4 6 3 3 0 9 4 5 6 4 3 4 3 5 6 12 9 5 6 4 9 8 10 10 9 7 7 8 8
2 2 1 2 2 4 8 5 6 7 5 5 4 7 8 6 6 4 7 3 2 1 3 2 3 4 3 2 1 3 6 13 14 3 6 3 5 7 3 6 6 9 9 8 7
4 3 0 2 2 3 3 4 4 1 5 4 8 5 10 12 2 8 2 1 1 2 2 3 6 3 4 2 1 6 10 14 7 5 9 7 10 7 4 9 10 10 10 10 9
Wind_Direction
325 323 322 328 327 334 336 336 335 330 330 327 319 307 306 312 322 269 248 226 210 197 219 217 207 174 169 201 142 134 82 215 218 169 243 144 122 57 10 108 67 42 146 148 150
320 321 314 316 321 326 330 332 333 330 327 327 320 315 302 317 315 249 235 229 213 208 235 196 181 148 159 192 170 132 164 210 224 223 189 109 120 135 108 102 79 61 61 132 145
312 315 318 313 314 316 324 328 331 331 325 324 315 315 304 330 336 247 218 213 219 223 226 199 155 166 169 148 188 172 199 206 226 200 203 147 87 108 126 247 207 170 143 145 154
305 309 311 312 310 311 316 322 326 329 323 317 312 303 299 313 251 304 161 196 221 224 210 196 172 158 156 190 180 159 218 172 196 263 80 121 126 106 188 222 190 161 158 155 166
300 301 303 304 303 302 309 315 318 323 321 309 301 300 223 205 256 219 176 182 212 219 233 199 165 158 189 183 131 178 209 181 207 148 131 132 190 203 238 222 111 128 158 164 165
301 294 294 297 301 300 306 309 311 314 316 300 286 292 204 251 235 202 181 184 198 220 228 194 210 207 180 191 164 189 180 182 183 203 176 189 253 134 253 116 143 153 171 174 168
313 302 291 291 289 293 300 303 305 305 313 289 268 270 236 243 191 202 198 204 206 215 239 225 217 192 130 132 167 130 123 143 215 206 217 133 273 227 202 166 167 183 173 155 162
311 308 304 288 285 287 292 300 305 307 305 272 244 247 251 250 244 213 208 215 202 199 232 198 208 142 142 116 31 113 71 157 244 163 232 109 268 276 202 160 181 176 161 155 175
303 309 306 304 289 281 285 294 303 306 284 213 220 213 261 271 194 197 198 201 183 166 169 175 132 146 64 113 60 345 188 205 299 197 140 164 269 279 195 170 182 178 172 177 167
294 296 302 306 299 287 279 287 305 269 174 171 255 302 260 219 176 188 189 170 156 116 92 110 59 144 78 158 200 185 189 213 206 206 161 189 258 274 247 189 190 187 182 181 179
281 287 287 290 302 304 269 293 355 297 228 195 196 220 206 184 157 171 177 137 100 99 166 179 174 209 201 192 206 144 152 168 201 177 144 217 257 251 228 218 205 201 188 192 190
287 276 282 282 281 297 258 192 219 175 287 239 245 243 274 186 132 174 163 153 157 193 139 109 233 215 169 191 211 181 156 183 16 141 168 216 260 244 220 214 206 203 199 195 168
281 283 274 284 286 279 233 232 214 160 250 269 212 213 204 179 202 186 160 146 154 173 189 180 209 180 167 173 194 245 167 169 155 120 109 12 283 231 238 208 198 212 204 194 187
280 277 273 273 280 251 238 250 239 211 270 270 217 238 184 149 232 171 176 137 177 191 171 232 261 170 156 189 154 210 196 146 136 113 208 97 272 288 227 242 221 204 196 188 170
292 284 279 258 238 226 252 269 215 169 243 237 208 159 160 176 135 217 177 104 168 175 147 230 192 160 167 193 156 209 113 120 97 95 51 189 66 266 338 256 231 208 197 192 177
283 278 289 267 247 248 258 148 128 201 220 240 171 167 128 182 90 77 171 98 147 142 202 221 202 166 168 79 142 146 82 48 56 75 355 215 162 270 196 213 195 179 196 183 170
283 280 264 253 232 256 232 211 188 224 157 197 188 168 157 163 137 153 175 177 166 137 176 144 191 221 131 85 12 89 97 28 3 359 218 153 140 250 244 230 207 187 188 184 163
279 278 269 267 242 230 190 216 212 185 186 125 150 140 180 136 175 151 153 196 242 97 124 156 237 171 183 164 166 187 157 157 195 193 199 127 224 250 209 298 244 174 162 155 154
293 280 267 251 224 193 229 225 201 210 184 156 88 119 192 166 134 153 188 199 205 187 153 135 225 44 124 143 151 192 195 146 107 25 61 218 281 292 190 44 117 141 143 167 166
282 263 252 242 216 179 242 243 223 194 135 130 188 160 179 181 167 177 195 211 206 190 170 187 101 174 149 110 31 166 158 97 4 134 244 260 275 234 201 191 165 160 169 172 171
296 263 253 217 185 200 216 224 189 266 187 160 175 138 162 154 171 186 211 248 206 184 168 126 97 251 139 219 162 138 177 53 117 129 169 159 255 214 200 177 181 185 180 178 179
209 247 276 173 200 216 193 193 236 222 226 214 167 159 173 163 168 211 224 234 190 173 188 163 122 149 199 314 313 170 177 150 135 236 154 159 271 26 239 188 172 179 178 178 180
235 263 243 175 215 217 258 227 252 261 233 197 206 182 177 166 203 202 214 268 204 182 175 172 173 86 11 345 341 207 191 123 115 90 202 143 258 25 80 152 180 168 182 184 180
147 281 246 178 295 159 156 197 216 217 271 248 178 149 134 171 228 270 217 212 235 197 183 160 132 154 182 207 150 187 189 178 141 133 164 223 218 252 196 180 181 183 183 175 180
213 241 288 212 245 221 169 194 210 231 200 220 229 199 165 171 195 207 156 222 350 138 103 152 145 124 78 130 140 181 177 172 190 180 163 227 198 213 205 195 189 173 147 153 177
207 205 197 267 196 194 176 186 193 187 195 208 212 193 181 180 188 232 149 197 254 31 107 320 116 106 85 168 271 239 194 197 208 184 273 140 259 217 167 120 153 175 161 170 174
206 279 111 195 149 150 221 196 187 57 260 217 204 223 229 216 131 154 184 66 256 94 83 92 134 111 195 158 285 295 203 191 198 198 167 189 216 157 165 183 187 175 172 169 166
Height
783 781 780 777 776 774 771 768 765 763 760 759 757 754 752 751 750 751 751 745 746 746 746 747 748 750 752 753 753 757 773 777 764 766 753 747 750 752 754 758 761 762 764 764 775
782 779 777 775 774 772 770 767 764 762 760 757 755 754 751 750 750 748 745 746 747 747 746 747 748 750 755 753 754 761 775 767 755 753 753 749 748 753 757 760 762 766 766 769 776
781 778 776 773 771 770 768 766 763 761 759 756 754 752 752 750 749 740 739 745 747 747 747 748 748 750 753 752 753 759 766 757 753 752 751 750 752 751 761 762 760 763 770 774 777
780 777 774 772 769 768 766 763 761 759 757 755 753 752 751 751 748 737 738 743 745 747 747 747 750 753 754 756 750 756 754 752 751 750 750 753 753 754 756 753 750 757 759 768 774
777 775 773 770 768 766 764 761 759 757 755 753 753 752 751 751 744 736 737 741 745 747 747 747 748 751 754 751 750 753 751 751 751 751 751 752 754 755 756 752 754 759 765 767 771
774 772 770 768 765 764 762 760 757 755 753 751 751 751 751 752 735 735 736 739 741 745 745 746 747 746 748 748 750 749 751 753 753 753 753 755 756 756 752 755 758 761 765 767 769
771 768 767 765 763 761 759 758 755 754 751 749 749 750 748 739 734 735 736 737 739 742 745 745 745 746 745 748 748 752 757 756 757 756 755 755 761 758 750 754 758 760 765 769 772
767 765 763 761 759 758 757 754 752 751 747 747 749 748 742 731 731 733 736 737 738 739 743 743 744 745 747 748 753 757 760 764 753 757 755 757 763 748 750 755 759 763 767 769 772
764 762 759 757 755 754 752 751 749 747 744 746 749 749 740 730 728 729 733 737 738 738 740 742 743 748 750 759 766 764 770 769 757 756 756 760 757 749 752 754 758 762 766 767 771
760 758 756 754 752 750 749 748 744 744 744 746 747 750 733 727 724 726 730 735 738 738 740 744 751 755 763 763 766 764 767 765 759 757 756 761 760 753 751 754 753 760 764 766 769
754 753 751 749 748 746 746 746 747 745 741 734 730 727 721 721 722 725 728 734 738 741 747 745 756 745 742 752 744 752 752 751 751 751 755 760 757 752 752 756 759 761 765 766 765
748 746 745 743 742 742 742 739 737 738 738 727 725 725 720 719 723 723 726 735 739 746 746 751 748 743 746 748 744 746 748 750 750 751 755 756 757 751 748 751 751 751 760 761 765
741 740 739 739 738 736 736 733 733 734 736 724 716 715 715 717 717 718 722 731 736 746 748 748 733 733 742 749 749 749 751 751 746 752 754 756 755 747 742 743 746 747 747 753 756
734 732 733 735 736 729 727 727 730 734 743 723 712 701 703 708 712 708 713 722 734 740 746 746 730 733 738 741 744 754 744 745 752 758 764 761 765 742 739 741 744 744 748 749 755
727 727 727 729 725 724 723 721 725 732 742 698 696 689 692 699 700 706 706 716 727 732 740 733 728 731 734 732 737 739 743 750 756 772 765 767 780 745 743 739 739 742 745 746 749
721 719 721 721 721 719 722 723 724 731 731 693 689 692 700 697 700 706 709 709 715 724 727 728 723 725 726 737 733 747 755 768 780 784 807 765 765 739 745 732 730 735 741 744 748
714 713 714 715 714 717 720 723 723 719 687 690 692 691 693 697 701 704 709 712 718 736 737 727 727 726 728 739 741 745 756 808 798 815 782 766 768 736 722 727 726 731 738 742 745
708 708 706 708 709 712 715 717 695 697 689 680 684 689 694 692 696 703 709 711 714 718 738 742 750 731 725 729 739 751 747 773 752 791 757 768 757 724 722 723 726 728 737 742 744
704 702 700 699 703 706 703 692 687 688 674 681 682 691 692 688 694 701 704 702 700 714 721 744 727 726 724 726 725 744 750 747 772 776 787 761 743 723 721 727 730 735 739 743 744
700 699 692 694 699 703 698 684 687 675 672 674 684 684 698 693 701 713 707 692 694 699 707 718 743 727 727 726 731 733 740 753 792 783 757 746 741 718 722 727 735 737 738 742 745
697 696 687 688 695 697 688 688 681 672 671 677 681 689 687 691 700 705 702 688 683 691 699 718 734 738 731 732 736 741 740 757 762 778 761 759 723 716 714 721 729 731 734 739 744
694 694 686 686 689 688 687 680 675 673 674 675 677 676 682 691 696 704 699 682 673 681 694 711 740 762 738 734 731 730 744 753 758 773 810 783 723 710 711 718 722 730 734 738 741
692 689 683 682 684 684 681 677 682 678 670 673 674 671 672 681 692 689 684 676 675 678 683 703 733 764 748 744 740 733 741 761 776 777 779 749 717 714 716 720 723 729 734 736 740
694 687 682 683 685 682 682 682 679 681 677 671 665 669 677 682 685 683 680 681 677 673 672 677 713 719 726 732 746 752 753 739 739 764 750 746 712 709 714 719 723 726 729 735 739
691 687 680 676 681 675 676 683 677 676 676 671 672 666 674 684 680 680 689 685 677 671 684 686 704 718 715 724 729 740 749 740 732 733 725 710 716 706 711 715 718 721 729 735 738
685 683 682 676 676 675 670 678 672 669 672 670 670 665 670 677 671 675 683 691 677 683 689 695 705 698 707 716 712 711 723 726 711 721 723 717 718 709 708 716 719 722 727 731 735
682 681 681 675 674 678 677 672 672 673 668 664 665 670 671 669 670 679 684 681 683 686 694 691 700 708 718 712 708 711 708 715 708 714 713 719 694 710 712 712 714 720 724 727 733